ECHOSTAR 16             
1 39008U 12065A   19258.81760520 -.00000290  00000-0  00000-0 0  9990
2 39008   0.0167 181.4704 0002217 353.4040  52.4550  1.00273402 24907
BREEZE-M R/B            
1 39009U 12065B   19258.41857656 -.00000204  00000-0  00000+0 0  9998
2 39009  30.6374  19.4537 6889085   3.4939 359.3739  2.23056383 55615
BREEZE-M DEB [TANK]     
1 39010U 12065C   19257.86787372  .00000284  00000-0  68152-4 0  9999
2 39010  49.6899  89.3626 4658891 233.5693  74.0158  6.15827874152210